Year,Month,Day,Hour,Minute,Value (Times are PST for windspeed in km/hr)
2012,12,06,00,00,0.00
2012,12,06,00,01,0.00
2012,12,06,00,02,0.00
2012,12,06,00,03,0.00
2012,12,06,00,04,0.00
2012,12,06,00,05,0.00
2012,12,06,00,06,0.00
2012,12,06,00,07,0.00
2012,12,06,00,08,0.00
2012,12,06,00,09,0.00
2012,12,06,00,10,0.00
2012,12,06,00,11,0.00
2012,12,06,00,12,0.10
2012,12,06,00,13,1.20
2012,12,06,00,14,0.00
2012,12,06,00,15,0.00
2012,12,06,00,16,0.00
2012,12,06,00,17,0.00
2012,12,06,00,18,0.00
2012,12,06,00,19,0.00
2012,12,06,00,20,0.00
2012,12,06,00,21,0.00
2012,12,06,00,22,1.70
2012,12,06,00,23,0.60
2012,12,06,00,24,0.00
2012,12,06,00,25,0.40
2012,12,06,00,26,1.20
2012,12,06,00,27,0.30
2012,12,06,00,28,0.70
2012,12,06,00,29,0.00
2012,12,06,00,30,0.10
2012,12,06,00,31,0.10
2012,12,06,00,32,0.40
2012,12,06,00,33,0.00
2012,12,06,00,34,0.00
2012,12,06,00,35,0.00
2012,12,06,00,36,0.00
2012,12,06,00,37,0.00
2012,12,06,00,38,0.00
2012,12,06,00,39,0.00
2012,12,06,00,40,0.00
2012,12,06,00,41,0.50
2012,12,06,00,42,0.00
2012,12,06,00,43,0.00
2012,12,06,00,44,0.00
2012,12,06,00,45,0.00
2012,12,06,00,46,0.00
2012,12,06,00,47,0.00
2012,12,06,00,48,0.00
2012,12,06,00,49,0.00
2012,12,06,00,50,0.00
2012,12,06,00,51,0.00
2012,12,06,00,52,0.00
2012,12,06,00,53,0.00
2012,12,06,00,54,0.00
2012,12,06,00,55,0.70
2012,12,06,00,56,0.60
2012,12,06,00,57,2.00
2012,12,06,00,58,3.30
2012,12,06,00,59,2.50
2012,12,06,01,00,4.00
2012,12,06,01,01,3.70
2012,12,06,01,02,5.50
2012,12,06,01,03,7.00
2012,12,06,01,04,7.60
2012,12,06,01,05,5.90
2012,12,06,01,06,5.20
2012,12,06,01,07,5.00
2012,12,06,01,08,4.90
2012,12,06,01,09,4.30
2012,12,06,01,10,3.10
2012,12,06,01,11,4.50
2012,12,06,01,12,4.80
2012,12,06,01,13,4.00
2012,12,06,01,14,3.60
2012,12,06,01,15,2.20
2012,12,06,01,16,1.50
2012,12,06,01,17,0.10
2012,12,06,01,18,0.80
2012,12,06,01,19,0.10
2012,12,06,01,20,0.70
2012,12,06,01,21,2.00
2012,12,06,01,22,2.10
2012,12,06,01,23,2.50
2012,12,06,01,24,1.70
2012,12,06,01,25,2.50
2012,12,06,01,26,1.60
2012,12,06,01,27,3.00
2012,12,06,01,28,3.20
2012,12,06,01,29,2.40
2012,12,06,01,30,3.20
2012,12,06,01,31,3.50
2012,12,06,01,32,1.90
2012,12,06,01,33,3.90
2012,12,06,01,34,4.50
2012,12,06,01,35,4.30
2012,12,06,01,36,2.40
2012,12,06,01,37,1.60
2012,12,06,01,38,0.90
2012,12,06,01,39,1.30
2012,12,06,01,40,0.60
2012,12,06,01,41,2.30
2012,12,06,01,42,3.20
2012,12,06,01,43,0.90
2012,12,06,01,44,0.60
2012,12,06,01,45,0.50
2012,12,06,01,46,0.80
2012,12,06,01,47,0.00
2012,12,06,01,48,0.00
2012,12,06,01,49,0.20
2012,12,06,01,50,0.00
2012,12,06,01,51,0.40
2012,12,06,01,52,0.30
2012,12,06,01,53,0.90
2012,12,06,01,54,0.40
2012,12,06,01,55,0.00
2012,12,06,01,56,0.00
2012,12,06,01,57,0.40
2012,12,06,01,58,0.90
2012,12,06,01,59,0.00
2012,12,06,02,00,0.10
2012,12,06,02,01,0.00
2012,12,06,02,02,0.00
2012,12,06,02,03,0.00
2012,12,06,02,04,0.00
2012,12,06,02,05,0.20
2012,12,06,02,06,0.80
2012,12,06,02,07,0.00
2012,12,06,02,08,0.40
2012,12,06,02,09,1.10
2012,12,06,02,10,2.10
2012,12,06,02,11,0.10
2012,12,06,02,12,0.00
2012,12,06,02,13,0.00
2012,12,06,02,14,0.20
2012,12,06,02,15,0.00
2012,12,06,02,16,0.90
2012,12,06,02,17,0.40
2012,12,06,02,18,0.20
2012,12,06,02,19,0.20
2012,12,06,02,20,1.00
2012,12,06,02,21,3.10
2012,12,06,02,22,2.50
2012,12,06,02,23,0.10
2012,12,06,02,24,0.80
2012,12,06,02,25,0.30
2012,12,06,02,26,1.60
2012,12,06,02,27,1.50
2012,12,06,02,28,1.60
2012,12,06,02,29,1.30
2012,12,06,02,30,2.40
2012,12,06,02,31,1.10
2012,12,06,02,32,1.20
2012,12,06,02,33,1.60
2012,12,06,02,34,1.20
2012,12,06,02,35,1.20
2012,12,06,02,36,1.10
2012,12,06,02,37,1.00
2012,12,06,02,38,1.50
2012,12,06,02,39,1.60
2012,12,06,02,40,1.80
2012,12,06,02,41,1.60
2012,12,06,02,42,0.10
2012,12,06,02,43,0.30
2012,12,06,02,44,0.20
2012,12,06,02,45,2.50
2012,12,06,02,46,3.60
2012,12,06,02,47,2.80
2012,12,06,02,48,3.30
2012,12,06,02,49,3.10
2012,12,06,02,50,3.40
2012,12,06,02,51,2.60
2012,12,06,02,52,1.70
2012,12,06,02,53,2.50
2012,12,06,02,54,3.50
2012,12,06,02,55,2.10
2012,12,06,02,56,0.20
2012,12,06,02,57,0.60
2012,12,06,02,58,0.70
2012,12,06,02,59,0.00
2012,12,06,03,00,0.10
2012,12,06,03,01,0.50
2012,12,06,03,02,0.00
2012,12,06,03,03,0.00
2012,12,06,03,04,0.60
2012,12,06,03,05,2.70
2012,12,06,03,06,3.30
2012,12,06,03,07,2.60
2012,12,06,03,08,1.80
2012,12,06,03,09,1.10
2012,12,06,03,10,0.40
2012,12,06,03,11,0.00
2012,12,06,03,12,0.00
2012,12,06,03,13,0.20
2012,12,06,03,14,2.10
2012,12,06,03,15,3.40
2012,12,06,03,16,3.00
2012,12,06,03,17,1.60
2012,12,06,03,18,1.60
2012,12,06,03,19,1.50
2012,12,06,03,20,1.30
2012,12,06,03,21,1.80
2012,12,06,03,22,1.80
2012,12,06,03,23,3.90
2012,12,06,03,24,3.30
2012,12,06,03,25,3.60
2012,12,06,03,26,3.00
2012,12,06,03,27,1.60
2012,12,06,03,28,0.40
2012,12,06,03,29,1.60
2012,12,06,03,30,2.00
2012,12,06,03,31,3.20
2012,12,06,03,32,2.20
2012,12,06,03,33,1.60
2012,12,06,03,34,3.70
2012,12,06,03,35,4.70
2012,12,06,03,36,5.20
2012,12,06,03,37,4.80
2012,12,06,03,38,5.00
2012,12,06,03,39,5.00
2012,12,06,03,40,4.00
2012,12,06,03,41,3.60
2012,12,06,03,42,2.30
2012,12,06,03,43,2.70
2012,12,06,03,44,3.30
2012,12,06,03,45,3.10
2012,12,06,03,46,2.10
2012,12,06,03,47,1.10
2012,12,06,03,48,3.00
2012,12,06,03,49,4.40
2012,12,06,03,50,5.30
2012,12,06,03,51,5.10
2012,12,06,03,52,5.10
2012,12,06,03,53,5.60
2012,12,06,03,54,4.80
2012,12,06,03,55,6.00
2012,12,06,03,56,6.10
2012,12,06,03,57,5.80
2012,12,06,03,58,5.40
2012,12,06,03,59,5.40
2012,12,06,04,00,4.80
2012,12,06,04,01,4.80
2012,12,06,04,02,5.10
2012,12,06,04,03,6.40
2012,12,06,04,04,5.80
2012,12,06,04,05,4.20
2012,12,06,04,06,3.20
2012,12,06,04,07,4.80
2012,12,06,04,08,4.80
2012,12,06,04,09,5.90
2012,12,06,04,10,6.90
2012,12,06,04,11,6.70
2012,12,06,04,12,7.50
2012,12,06,04,13,6.10
2012,12,06,04,14,10.00
2012,12,06,04,15,9.40
2012,12,06,04,16,8.10
2012,12,06,04,17,5.60
2012,12,06,04,18,9.50
2012,12,06,04,19,8.10
2012,12,06,04,20,6.80
2012,12,06,04,21,3.50
2012,12,06,04,22,7.90
2012,12,06,04,23,9.30
2012,12,06,04,24,8.90
2012,12,06,04,25,6.60
2012,12,06,04,26,3.50
2012,12,06,04,27,6.40
2012,12,06,04,28,3.90
2012,12,06,04,29,6.70
2012,12,06,04,30,6.10
2012,12,06,04,31,7.00
2012,12,06,04,32,8.00
2012,12,06,04,33,5.80
2012,12,06,04,34,5.90
2012,12,06,04,35,6.00
2012,12,06,04,36,10.10
2012,12,06,04,37,10.10
2012,12,06,04,38,11.40
2012,12,06,04,39,11.20
2012,12,06,04,40,10.20
2012,12,06,04,41,11.00
2012,12,06,04,42,10.50
2012,12,06,04,43,9.70
2012,12,06,04,44,10.60
2012,12,06,04,45,12.10
2012,12,06,04,46,10.20
2012,12,06,04,47,11.40
2012,12,06,04,48,11.40
2012,12,06,04,49,9.50
2012,12,06,04,50,11.60
2012,12,06,04,51,12.00
2012,12,06,04,52,11.40
2012,12,06,04,53,9.90
2012,12,06,04,54,6.90
2012,12,06,04,55,8.20
2012,12,06,04,56,5.90
2012,12,06,04,57,7.90
2012,12,06,04,58,5.40
2012,12,06,04,59,9.40
2012,12,06,05,00,7.80
2012,12,06,05,01,5.60
2012,12,06,05,02,1.50
2012,12,06,05,03,4.30
2012,12,06,05,04,7.90
2012,12,06,05,05,9.30
2012,12,06,05,06,12.70
2012,12,06,05,07,8.40
2012,12,06,05,08,7.00
2012,12,06,05,09,8.00
2012,12,06,05,10,11.20
2012,12,06,05,11,10.30
2012,12,06,05,12,8.90
2012,12,06,05,13,8.40
2012,12,06,05,14,7.70
2012,12,06,05,15,5.90
2012,12,06,05,16,5.70
2012,12,06,05,17,2.80
2012,12,06,05,18,9.90
2012,12,06,05,19,13.30
2012,12,06,05,20,11.40
2012,12,06,05,21,7.50
2012,12,06,05,22,9.00
2012,12,06,05,23,9.00
2012,12,06,05,24,6.40
2012,12,06,05,25,5.60
2012,12,06,05,26,6.20
2012,12,06,05,27,3.90
2012,12,06,05,28,1.80
2012,12,06,05,29,1.80
2012,12,06,05,30,3.70
2012,12,06,05,31,4.00
2012,12,06,05,32,3.10
2012,12,06,05,33,4.00
2012,12,06,05,34,3.80
2012,12,06,05,35,2.30
2012,12,06,05,36,2.30
2012,12,06,05,37,4.50
2012,12,06,05,38,2.70
2012,12,06,05,39,3.60
2012,12,06,05,40,4.50
2012,12,06,05,41,4.70
2012,12,06,05,42,4.20
2012,12,06,05,43,3.70
2012,12,06,05,44,4.80
2012,12,06,05,45,4.40
2012,12,06,05,46,5.30
2012,12,06,05,47,7.90
2012,12,06,05,48,6.60
2012,12,06,05,49,4.70
2012,12,06,05,50,4.80
2012,12,06,05,51,4.00
2012,12,06,05,52,3.60
2012,12,06,05,53,3.80
2012,12,06,05,54,5.30
2012,12,06,05,55,6.10
2012,12,06,05,56,8.90
2012,12,06,05,57,9.70
2012,12,06,05,58,7.20
2012,12,06,05,59,9.50
2012,12,06,06,00,6.80
2012,12,06,06,01,7.10
2012,12,06,06,02,7.40
2012,12,06,06,03,7.60
2012,12,06,06,04,8.40
2012,12,06,06,05,4.50
2012,12,06,06,06,6.50
2012,12,06,06,07,8.00
2012,12,06,06,08,6.40
2012,12,06,06,09,6.10
2012,12,06,06,10,6.50
2012,12,06,06,11,6.20
2012,12,06,06,12,5.50
2012,12,06,06,13,5.60
2012,12,06,06,14,9.30
2012,12,06,06,15,7.80
2012,12,06,06,16,7.60
2012,12,06,06,17,4.10
2012,12,06,06,18,5.00
2012,12,06,06,19,3.70
2012,12,06,06,20,3.00
2012,12,06,06,21,2.90
2012,12,06,06,22,4.80
2012,12,06,06,23,7.70
2012,12,06,06,24,8.00
2012,12,06,06,25,9.90
2012,12,06,06,26,8.70
2012,12,06,06,27,7.20
2012,12,06,06,28,5.10
2012,12,06,06,29,4.70
2012,12,06,06,30,6.30
2012,12,06,06,31,5.40
2012,12,06,06,32,2.40
2012,12,06,06,33,4.60
2012,12,06,06,34,5.90
2012,12,06,06,35,2.80
2012,12,06,06,36,3.40
2012,12,06,06,37,4.00
2012,12,06,06,38,2.00
2012,12,06,06,39,1.00
2012,12,06,06,40,1.60
2012,12,06,06,41,2.00
2012,12,06,06,42,2.50
2012,12,06,06,43,4.00
2012,12,06,06,44,4.80
2012,12,06,06,45,4.80
2012,12,06,06,46,4.80
2012,12,06,06,47,4.80
2012,12,06,06,48,4.80
2012,12,06,06,49,4.80
2012,12,06,06,50,4.80
2012,12,06,06,51,4.80
2012,12,06,06,52,4.80
2012,12,06,06,53,4.80
2012,12,06,06,54,3.30
2012,12,06,06,55,2.70
2012,12,06,06,56,2.30
2012,12,06,06,57,6.20
2012,12,06,06,58,7.50
2012,12,06,06,59,9.30
2012,12,06,07,00,9.50
2012,12,06,07,01,8.50
2012,12,06,07,02,8.70
2012,12,06,07,03,8.90
2012,12,06,07,04,12.80
2012,12,06,07,05,16.10
2012,12,06,07,06,16.10
2012,12,06,07,07,13.80
2012,12,06,07,08,10.70
2012,12,06,07,09,9.80
2012,12,06,07,10,12.20
2012,12,06,07,11,11.30
2012,12,06,07,12,11.20
2012,12,06,07,13,14.00
2012,12,06,07,14,15.00
2012,12,06,07,15,12.60
2012,12,06,07,16,9.60
2012,12,06,07,17,9.60
2012,12,06,07,18,9.60
2012,12,06,07,19,9.60
2012,12,06,07,20,9.60
2012,12,06,07,21,9.60
2012,12,06,07,22,9.60
2012,12,06,07,23,9.60
2012,12,06,07,24,9.60
2012,12,06,07,25,14.20
2012,12,06,07,26,14.30
2012,12,06,07,27,9.70
2012,12,06,07,28,12.40
2012,12,06,07,29,13.30
2012,12,06,07,30,8.50
2012,12,06,07,31,4.80
2012,12,06,07,32,4.80
2012,12,06,07,33,4.80
2012,12,06,07,34,4.80
2012,12,06,07,35,4.80
2012,12,06,07,36,4.80
2012,12,06,07,37,4.80
2012,12,06,07,38,4.80
2012,12,06,07,39,4.80
2012,12,06,07,40,4.80
2012,12,06,10,30,3.30
2012,12,06,10,31,1.50
2012,12,06,10,32,5.10
2012,12,06,10,33,1.90
2012,12,06,10,34,3.10
2012,12,06,10,35,3.10
2012,12,06,10,36,4.00
2012,12,06,10,37,2.10
2012,12,06,10,38,2.50
2012,12,06,10,39,0.10
2012,12,06,10,40,0.00
2012,12,06,10,41,0.20
2012,12,06,10,42,2.90
2012,12,06,10,43,2.60
2012,12,06,10,44,0.40
2012,12,06,10,45,2.30
2012,12,06,10,46,1.60
2012,12,06,10,47,0.40
2012,12,06,10,48,0.10
2012,12,06,10,49,1.60
2012,12,06,10,50,0.00
2012,12,06,10,51,0.10
2012,12,06,10,52,2.10
2012,12,06,10,53,0.30
2012,12,06,10,54,3.70
2012,12,06,10,55,3.40
2012,12,06,10,56,0.50
2012,12,06,10,57,1.30
2012,12,06,10,58,0.70
2012,12,06,10,59,4.20
2012,12,06,11,00,7.50
2012,12,06,11,01,4.80
2012,12,06,11,02,4.90
2012,12,06,11,03,6.60
2012,12,06,11,04,6.50
2012,12,06,11,05,4.50
2012,12,06,11,06,5.60
2012,12,06,11,07,3.20
2012,12,06,11,08,0.30
2012,12,06,11,09,1.80
2012,12,06,11,10,1.80
2012,12,06,11,11,3.70
2012,12,06,11,12,4.20
2012,12,06,11,13,4.80
2012,12,06,11,14,3.10
2012,12,06,11,15,4.50
2012,12,06,11,16,4.50
2012,12,06,11,17,3.30
2012,12,06,11,18,5.40
2012,12,06,11,19,3.40
2012,12,06,11,20,4.90
2012,12,06,11,21,1.70
2012,12,06,11,22,2.20
2012,12,06,11,23,0.80
2012,12,06,11,24,1.70
2012,12,06,11,25,2.30
2012,12,06,11,26,3.00
2012,12,06,11,27,4.70
2012,12,06,11,28,3.00
2012,12,06,11,29,3.10
2012,12,06,11,30,1.80
2012,12,06,11,31,2.50
2012,12,06,11,32,2.80
2012,12,06,11,33,0.40
2012,12,06,11,34,4.10
2012,12,06,11,35,5.40
2012,12,06,11,36,2.90
2012,12,06,11,37,3.90
2012,12,06,11,38,3.40
2012,12,06,11,39,5.70
2012,12,06,11,40,6.20
2012,12,06,11,41,3.80
2012,12,06,11,42,5.70
2012,12,06,11,43,4.60
2012,12,06,11,44,3.40
2012,12,06,11,45,4.40
2012,12,06,11,46,2.40
2012,12,06,11,47,1.10
2012,12,06,11,48,6.80
2012,12,06,11,49,2.70
2012,12,06,11,50,0.00
2012,12,06,11,51,5.70
2012,12,06,11,52,7.50
2012,12,06,11,53,2.70
2012,12,06,11,54,3.70
2012,12,06,11,55,0.50
2012,12,06,11,56,2.90
2012,12,06,11,57,2.80
2012,12,06,11,58,2.20
2012,12,06,11,59,2.40
2012,12,06,12,00,4.90
2012,12,06,12,01,5.60
2012,12,06,12,02,2.20
2012,12,06,12,03,5.10
2012,12,06,12,04,4.20
2012,12,06,12,05,1.10
2012,12,06,12,06,0.90
2012,12,06,12,07,2.20
2012,12,06,12,08,5.20
2012,12,06,12,09,4.70
2012,12,06,12,10,5.30
2012,12,06,12,11,1.20
2012,12,06,12,12,2.50
2012,12,06,12,13,5.00
2012,12,06,12,14,4.60
2012,12,06,12,15,4.70
2012,12,06,12,16,5.10
2012,12,06,12,17,3.50
2012,12,06,12,18,6.10
2012,12,06,12,19,4.70
2012,12,06,12,20,4.90
2012,12,06,12,21,4.60
2012,12,06,12,22,3.80
2012,12,06,12,23,4.70
2012,12,06,12,24,3.10
2012,12,06,12,25,2.80
2012,12,06,12,26,4.10
2012,12,06,12,27,3.50
2012,12,06,12,28,4.30
2012,12,06,12,29,2.80
2012,12,06,12,30,5.10
2012,12,06,12,31,5.10
2012,12,06,12,32,6.10
2012,12,06,12,33,4.30
2012,12,06,12,34,5.80
2012,12,06,12,35,5.70
2012,12,06,12,36,4.30
2012,12,06,12,37,8.00
2012,12,06,12,38,3.80
2012,12,06,12,39,3.20
2012,12,06,12,40,3.90
2012,12,06,12,41,2.90
2012,12,06,12,42,5.00
2012,12,06,12,43,7.50
2012,12,06,12,44,6.20
2012,12,06,12,45,5.20
2012,12,06,12,46,5.60
2012,12,06,12,47,4.40
2012,12,06,12,48,5.40
2012,12,06,12,49,5.20
2012,12,06,12,50,3.80
2012,12,06,12,51,5.10
2012,12,06,12,52,4.50
2012,12,06,12,53,5.00
2012,12,06,12,54,4.60
2012,12,06,12,55,3.90
2012,12,06,12,56,4.80
2012,12,06,12,57,2.90
2012,12,06,12,58,5.40
2012,12,06,12,59,4.80
2012,12,06,13,00,4.10
2012,12,06,13,01,2.80
2012,12,06,13,02,2.30
2012,12,06,13,03,2.10
2012,12,06,13,04,7.40
2012,12,06,13,05,5.60
2012,12,06,13,06,5.10
2012,12,06,13,07,6.40
2012,12,06,13,08,6.60
2012,12,06,13,09,3.50
2012,12,06,13,10,1.90
2012,12,06,13,11,6.20
2012,12,06,13,12,2.40
2012,12,06,13,13,0.30
2012,12,06,13,14,2.00
2012,12,06,13,15,3.50
2012,12,06,13,16,4.60
2012,12,06,13,17,2.20
2012,12,06,13,18,4.10
2012,12,06,13,19,3.20
2012,12,06,13,20,6.80
2012,12,06,13,21,5.80
2012,12,06,13,22,4.60
2012,12,06,13,23,3.50
2012,12,06,13,24,4.10
2012,12,06,13,25,6.60
2012,12,06,13,26,3.70
2012,12,06,13,27,4.00
2012,12,06,13,28,7.10
2012,12,06,13,29,2.40
2012,12,06,13,30,5.40
2012,12,06,13,31,5.70
2012,12,06,13,32,7.10
2012,12,06,13,33,7.10
2012,12,06,13,34,1.20
2012,12,06,13,35,2.80
2012,12,06,13,36,3.40
2012,12,06,13,37,4.50
2012,12,06,13,38,2.70
2012,12,06,13,39,5.10
2012,12,06,13,40,3.60
2012,12,06,13,41,2.80
2012,12,06,13,42,4.00
2012,12,06,13,43,3.90
2012,12,06,13,44,6.90
2012,12,06,13,45,5.80
2012,12,06,13,46,4.00
2012,12,06,13,47,3.10
2012,12,06,13,48,3.30
2012,12,06,13,49,3.60
2012,12,06,13,50,5.90
2012,12,06,13,51,3.60
2012,12,06,13,52,0.00
2012,12,06,13,53,3.20
2012,12,06,13,54,3.80
2012,12,06,13,55,1.30
2012,12,06,13,56,5.40
2012,12,06,13,57,7.10
2012,12,06,13,58,7.40
2012,12,06,13,59,3.60
2012,12,06,14,00,4.90
2012,12,06,14,01,5.60
2012,12,06,14,02,3.60
2012,12,06,14,03,1.10
2012,12,06,14,04,3.50
2012,12,06,14,05,4.80
2012,12,06,14,06,1.80
2012,12,06,14,07,4.30
2012,12,06,14,08,2.20
2012,12,06,14,09,3.10
2012,12,06,14,10,3.40
2012,12,06,14,11,5.30
2012,12,06,14,12,4.50
2012,12,06,14,13,4.60
2012,12,06,14,14,4.30
2012,12,06,14,15,4.30
2012,12,06,14,16,5.60
2012,12,06,14,17,4.80
2012,12,06,14,18,5.90
2012,12,06,14,19,2.50
2012,12,06,14,20,1.60
2012,12,06,14,21,1.60
2012,12,06,14,22,1.60
2012,12,06,14,23,1.60
2012,12,06,14,24,1.60
2012,12,06,14,25,1.60
2012,12,06,14,26,1.60
2012,12,06,14,27,1.60
2012,12,06,14,28,1.60
2012,12,06,14,29,1.60
